Date,TemperatureHighF,TemperatureAvgF,TemperatureLowF,DewpointHighF,DewpointAvgF,DewpointLowF,HumidityHigh,HumidityAvg,HumidityLow,PressureMaxIn,PressureMinIn,WindSpeedMaxMPH,WindSpeedAvgMPH,GustSpeedMaxMPH,PrecipitationSumIn
2013-1-1,57.6,46.0,33.1,42.2,36.6,29.6,90,71,51,30.25,30.17,7,2,7,0.00
2013-1-2,59.4,41.9,28.4,42.9,33.7,25.2,91,75,50,30.24,30.15,4,1,4,0.00
2013-1-3,60.7,41.6,28.4,44.5,34.7,25.7,93,78,54,30.27,30.16,4,1,4,0.00
2013-1-4,59.6,42.3,28.8,45.0,35.0,26.0,92,77,53,30.31,30.19,6,1,6,0.00
2013-1-5,60.5,42.8,31.1,47.1,34.7,28.5,92,75,39,30.26,30.05,6,1,6,0.00
2013-1-6,50.6,46.6,42.7,46.0,42.7,39.1,92,86,72,30.14,30.07,8,2,8,0.00
2013-1-7,50.4,44.3,35.8,43.1,40.3,32.7,92,86,70,30.25,30.10,9,2,9,0.00
2013-1-8,60.7,44.4,32.0,47.8,38.2,29.5,93,80,56,30.24,30.15,4,1,4,0.00
2013-1-9,60.3,46.9,35.6,49.3,41.4,33.0,93,82,65,30.16,29.92,13,1,13,0.01
2013-1-10,52.0,43.6,33.7,42.8,35.0,28.6,87,72,52,30.13,30.00,11,3,12,0.00
2013-1-11,55.6,38.4,26.6,41.7,30.0,23.4,90,73,52,30.22,30.09,5,1,6,0.00
2013-1-12,49.7,36.5,26.3,37.3,29.8,22.6,89,77,53,30.22,30.12,8,1,8,0.01
2013-1-13,48.6,35.7,26.6,35.6,28.7,23.0,90,76,57,30.22,30.11,5,1,5,0.00
2013-1-14,47.7,34.8,25.6,36.2,28.4,21.7,90,78,59,30.38,30.19,5,1,7,0.00
2013-1-15,51.5,37.3,25.7,37.4,28.8,22.0,89,73,46,30.47,30.37,4,0,4,0.00
2013-1-16,55.1,39.4,27.0,38.2,30.2,23.0,90,71,43,30.43,30.25,3,0,5,0.00
2013-1-17,59.0,41.8,28.1,42.3,33.8,24.4,91,75,50,30.27,30.15,4,1,5,0.00
2013-1-18,61.2,43.2,29.9,44.5,35.5,26.6,91,76,50,30.22,30.12,4,1,4,0.00
2013-1-19,60.5,43.6,29.7,44.8,35.6,26.0,91,75,51,30.25,30.15,5,1,6,0.00
2013-1-20,60.3,43.3,30.4,45.8,36.2,27.6,91,77,53,30.23,30.11,5,1,6,0.00
2013-1-21,63.2,44.8,31.5,47.3,37.3,28.2,93,77,49,30.18,30.09,3,1,4,0.00
2013-1-22,64.6,46.8,33.1,48.0,39.0,29.3,90,76,49,30.13,30.01,6,1,8,0.00
2013-1-23,66.8,52.2,37.8,50.8,41.7,33.7,88,69,46,30.07,29.96,12,2,12,0.00
2013-1-24,60.1,53.8,48.4,53.5,49.1,44.7,93,84,70,30.16,30.01,4,1,5,0.08
2013-1-25,57.1,53.9,51.1,54.3,51.7,49.2,95,92,89,30.17,30.01,3,1,4,0.02
2013-1-26,61.2,55.1,48.1,57.1,52.0,42.5,95,89,80,30.01,29.93,8,1,8,0.01
2013-1-27,54.4,46.3,36.2,43.3,38.2,31.1,85,74,57,30.10,29.97,7,2,10,0.04
2013-1-28,53.1,40.6,29.9,41.7,33.9,26.5,91,78,57,30.23,30.08,8,1,8,0.00
2013-1-29,55.4,42.4,31.3,42.7,35.5,28.3,92,78,57,30.29,30.22,7,1,8,0.00
2013-1-30,61.2,45.4,33.5,45.6,37.8,30.2,92,76,52,30.34,30.25,5,1,6,0.00
2013-1-31,64.1,48.0,35.5,48.8,40.4,32.0,92,76,52,30.27,30.15,5,1,5,0.00
2013-2-1,65.5,49.3,35.1,50.1,42.2,31.9,93,78,54,30.21,30.09,5,1,5,0.00
2013-2-2,61.9,51.4,42.3,51.4,45.7,38.7,91,81,65,30.25,30.17,3,1,5,0.00
2013-2-3,62.3,49.7,39.2,51.7,44.3,36.8,93,83,64,30.19,30.08,5,1,5,0.00
2013-2-4,64.3,49.4,35.6,52.3,43.2,33.4,94,80,59,30.15,30.02,6,1,8,0.00
2013-2-5,62.6,49.3,38.5,52.5,44.0,36.3,94,83,66,30.07,29.97,5,2,8,0.00
2013-2-6,53.6,44.5,36.0,47.0,40.8,33.3,94,87,75,30.17,30.05,10,2,11,0.00
2013-2-7,59.0,44.3,32.0,48.0,39.1,30.1,94,83,60,30.14,29.96,5,1,7,0.15
2013-2-8,52.2,44.5,37.3,44.6,39.5,33.7,93,83,67,29.96,29.88,7,1,8,0.01
2013-2-9,56.9,43.5,35.3,44.6,37.0,31.9,94,79,58,30.08,29.92,8,2,13,0.00
2013-2-10,57.2,44.4,35.3,42.8,36.2,31.6,88,74,49,30.08,30.00,7,2,9,0.00
2013-2-11,58.7,44.4,32.0,41.4,34.4,28.4,92,70,45,30.22,30.05,6,1,6,0.01
2013-2-12,60.8,45.5,32.0,42.9,34.7,28.4,88,68,40,30.34,30.21,7,1,8,0.00
2013-2-13,63.0,45.8,32.6,43.6,35.7,28.5,88,70,40,30.31,30.19,4,1,6,0.00
2013-2-14,64.8,48.3,34.2,46.0,38.9,30.3,89,72,47,30.22,30.13,6,1,6,0.00
2013-2-15,69.3,51.1,35.8,49.2,41.0,32.3,92,71,42,30.26,30.20,5,1,6,0.00
2013-2-16,69.7,52.1,36.7,49.6,42.0,33.0,88,70,45,30.22,29.99,4,1,5,0.00
2013-2-17,66.4,50.0,36.0,46.9,39.6,31.3,88,70,43,29.99,29.91,6,1,7,0.00
2013-2-18,68.0,49.7,33.8,49.8,40.6,30.3,92,73,42,29.99,29.86,10,2,10,0.00
2013-2-19,51.7,45.4,37.6,41.2,38.6,34.0,90,77,65,29.92,29.68,12,2,12,0.61
2013-2-20,52.2,42.6,37.1,41.6,36.6,33.3,91,80,60,30.05,29.77,12,2,12,0.04
2013-2-21,56.2,46.8,38.5,43.7,38.6,34.3,87,74,54,30.14,30.00,8,1,8,0.00
2013-2-22,59.8,47.1,35.6,45.1,38.3,31.6,90,73,49,30.22,30.13,10,1,10,0.00
2013-2-23,58.9,47.3,37.4,45.9,37.9,30.4,91,71,48,30.20,30.04,9,2,9,0.00
2013-2-24,61.2,45.7,29.9,40.4,34.4,26.2,88,67,42,30.21,30.08,13,2,13,0.00
2013-2-25,64.8,48.8,32.8,43.7,36.3,28.2,88,65,34,30.24,30.10,5,1,5,0.00
2013-2-26,63.2,47.9,31.7,45.6,38.3,28.0,91,71,49,30.18,30.08,10,1,10,0.00
2013-2-27,67.3,50.9,35.3,47.9,39.2,31.4,88,67,37,30.31,30.17,7,1,7,0.00
2013-2-28,68.4,51.8,36.2,47.1,40.2,32.0,87,67,39,30.40,30.30,8,1,8,0.00
2013-3-1,71.6,55.2,39.6,50.7,43.6,35.5,89,68,41,30.39,30.21,7,1,7,0.00
2013-3-2,78.7,60.4,43.0,53.8,46.0,38.6,88,63,33,30.23,30.01,11,2,11,0.00
2013-3-3,67.5,59.4,49.9,51.3,48.0,44.4,85,66,51,30.09,29.96,7,1,7,0.00
2013-3-4,69.3,54.7,40.7,52.1,45.6,37.8,91,73,48,30.09,29.98,8,1,8,0.00
2013-3-5,71.6,57.2,40.7,53.0,43.5,35.0,94,63,41,30.01,29.86,12,3,12,0.00
2013-3-6,62.8,53.3,45.7,48.4,43.8,36.5,85,71,51,30.07,29.94,15,4,15,0.00
2013-3-7,59.6,50.4,43.9,49.3,43.9,39.1,91,79,55,29.95,29.80,11,2,11,0.20
2013-3-8,54.0,48.7,44.8,48.5,44.9,42.3,92,87,79,30.02,29.73,11,4,11,0.32
2013-3-9,61.2,50.5,43.9,48.0,43.6,39.3,92,78,59,30.28,30.02,6,1,6,0.00
2013-3-10,66.2,53.3,38.5,49.4,43.3,35.1,90,71,45,30.32,30.21,9,1,9,0.00
2013-3-11,70.6,54.5,38.7,51.1,44.2,35.3,90,70,47,30.22,30.06,5,1,5,0.00
2013-3-12,75.1,58.2,41.9,54.9,47.4,38.3,89,70,44,30.12,30.02,6,1,6,0.00
2013-3-13,79.6,61.6,44.6,57.6,49.7,40.7,89,68,42,30.14,30.01,6,1,6,0.01
2013-3-14,80.6,63.4,47.0,59.2,51.6,42.3,88,68,38,30.09,30.01,7,1,7,0.00
2013-3-15,78.5,62.7,49.0,60.3,53.2,45.9,91,73,49,30.04,29.96,8,1,8,0.00
2013-3-16,76.7,60.7,44.6,59.8,49.2,41.7,91,69,40,30.03,29.93,8,2,8,0.00
2013-3-17,73.6,59.2,46.1,51.6,42.3,35.6,85,57,26,30.04,29.96,7,2,7,0.00
2013-3-18,73.3,57.5,38.9,50.0,42.9,32.9,83,60,38,30.06,29.97,10,1,10,0.00
2013-3-19,77.8,62.5,44.6,54.0,47.0,41.0,88,60,33,30.14,29.99,11,2,11,0.02
2013-3-20,75.1,62.9,53.5,57.2,51.4,45.9,86,68,39,30.12,30.00,17,2,17,0.01
2013-3-21,68.4,56.7,49.1,52.4,47.6,40.5,92,73,50,30.02,29.91,9,2,9,0.00
2013-3-22,67.3,53.3,38.9,47.6,37.1,25.7,82,58,25,30.01,29.91,8,2,8,0.00
2013-3-23,70.2,53.7,34.0,42.4,36.0,27.5,81,54,32,30.09,29.99,12,2,12,0.00
2013-3-24,75.1,57.8,39.6,48.0,40.1,33.8,81,55,29,30.06,29.90,9,1,9,0.00
2013-3-25,77.4,59.8,42.1,51.0,43.1,35.8,83,57,34,29.96,29.85,7,1,7,0.00
2013-3-26,76.1,59.9,44.1,52.0,44.1,37.5,88,59,33,29.94,29.85,7,1,7,0.00
2013-3-27,76.7,60.3,44.3,52.6,46.5,38.8,87,63,38,29.96,29.86,8,1,8,0.00
2013-3-28,72.4,61.5,47.3,56.9,51.0,42.9,90,70,52,30.04,29.96,9,1,9,0.00
2013-3-29,81.0,63.9,43.6,56.6,48.3,39.3,88,60,34,30.06,29.95,8,1,8,0.00
2013-3-30,84.1,67.9,49.7,56.4,49.1,43.7,83,54,32,30.01,29.87,9,2,9,0.00
2013-3-31,75.2,64.6,55.3,58.8,51.3,42.6,90,65,35,30.06,29.92,13,3,13,0.19
2013-4-1,73.3,61.3,49.5,53.3,48.6,44.8,88,65,41,30.11,30.01,10,2,10,0.00
2013-4-2,73.6,60.3,44.1,55.1,49.2,40.1,92,69,46,30.11,30.01,7,1,7,0.01
2013-4-3,80.3,64.0,47.2,57.6,50.3,43.8,89,64,39,30.09,29.93,7,1,7,0.02
2013-4-4,76.0,61.5,51.8,57.9,52.3,45.9,89,73,46,30.12,29.94,7,2,7,0.09
2013-4-5,72.0,59.8,51.3,55.8,51.3,46.6,92,75,51,30.12,30.03,7,2,7,0.00
2013-4-6,73.8,60.1,45.7,54.4,49.7,42.1,89,71,40,30.13,30.03,8,2,8,0.02
2013-4-7,76.9,62.3,47.0,56.1,49.7,43.6,90,66,38,30.09,29.81,9,2,9,0.00
2013-4-8,67.0,55.1,44.6,46.4,42.0,34.8,88,64,34,29.84,29.71,11,2,11,0.09
2013-4-9,73.1,57.3,35.3,45.6,38.3,30.0,83,53,26,30.00,29.83,10,2,10,0.00
2013-4-10,81.4,64.1,45.0,45.6,41.1,35.6,73,46,24,30.13,29.99,9,2,9,0.00
2013-4-11,79.9,64.6,47.3,53.7,47.7,39.4,78,56,34,29.99,29.74,10,2,10,0.00
2013-4-12,83.9,66.8,47.5,55.3,48.6,41.8,84,55,33,29.86,29.74,10,2,10,0.00
2013-4-13,84.8,66.9,47.2,55.1,46.8,39.8,87,53,23,29.81,29.69,8,2,8,0.00
2013-4-14,79.0,63.0,48.2,50.3,42.0,31.0,79,51,21,29.83,29.72,10,2,10,0.00
2013-4-15,72.4,58.4,47.0,47.8,40.4,28.8,82,54,28,29.84,29.73,11,2,11,0.00
2013-4-16,68.4,52.0,36.7,43.4,34.6,29.0,77,54,30,29.99,29.84,13,2,13,0.00
2013-4-17,73.3,55.6,32.9,38.0,29.8,23.9,78,41,18,30.16,29.99,10,2,10,0.00
2013-4-18,76.7,58.4,37.1,34.7,29.6,25.4,70,38,17,30.22,30.13,11,2,11,0.00
2013-4-19,84.4,64.5,42.5,41.6,37.0,28.4,71,40,21,30.20,29.97,11,1,11,0.00
2013-4-20,85.7,66.8,47.2,49.8,43.4,36.6,72,46,26,30.01,29.91,9,1,9,0.02
2013-4-21,89.5,69.8,50.0,49.9,44.9,39.2,73,44,23,29.98,29.87,10,2,10,0.00
2013-4-22,90.7,70.8,49.7,52.0,45.5,39.3,73,44,24,29.92,29.77,8,2,8,0.00
2013-4-23,87.8,69.4,50.9,46.3,43.6,39.1,77,43,22,29.88,29.77,14,2,14,0.00
2013-4-24,90.9,70.2,48.6,49.6,43.8,37.5,71,43,21,29.81,29.68,10,2,10,0.00
2013-4-25,81.4,66.1,50.6,52.8,47.8,42.8,81,54,34,30.03,29.81,10,2,10,0.00
2013-4-26,86.6,68.1,47.9,54.4,46.6,40.8,82,51,23,30.14,30.03,9,2,9,0.00
2013-4-27,91.1,72.1,51.1,54.6,47.8,39.6,78,45,24,30.14,29.97,9,2,9,0.00
2013-4-28,94.7,74.4,52.9,57.3,48.2,37.4,78,46,15,29.98,29.81,11,2,11,0.00
2013-4-29,95.6,75.6,55.4,58.2,49.2,44.1,73,43,22,29.83,29.68,10,2,10,0.00
2013-4-30,89.1,72.2,55.8,52.9,44.5,35.0,69,41,17,29.77,29.68,11,2,11,0.00
2013-5-1,88.7,70.7,51.8,43.5,37.1,33.5,60,33,16,30.02,29.76,14,3,14,0.00
2013-5-2,92.2,74.2,53.3,46.9,41.8,36.6,59,34,16,30.12,30.01,11,2,11,0.00
2013-5-3,94.9,75.5,53.1,48.1,41.6,34.5,65,34,13,30.01,29.74,10,2,10,0.00
2013-5-4,94.7,75.1,55.1,49.0,42.0,35.7,59,34,16,29.74,29.50,10,2,10,0.00
2013-5-5,77.4,68.2,59.4,47.5,42.2,30.1,50,40,27,29.79,29.57,18,6,18,0.00
2013-5-6,78.5,68.3,59.9,49.4,45.2,42.5,64,45,31,29.93,29.79,16,4,16,0.00
2013-5-7,70.2,62.4,55.4,54.0,51.0,47.8,85,67,52,30.00,29.92,9,2,9,0.02
2013-5-8,77.8,65.0,52.7,58.1,52.5,46.8,87,66,45,30.06,29.97,6,1,6,0.06
2013-5-9,84.1,68.7,53.3,56.3,51.7,46.1,81,57,37,30.06,29.99,11,2,11,0.00
2013-5-10,89.6,73.5,55.4,60.1,54.7,48.0,78,54,33,30.10,29.99,9,2,9,0.01
2013-5-11,97.2,79.2,59.6,61.3,57.1,51.6,79,50,27,30.06,29.95,12,2,12,0.01
2013-5-12,101.7,82.0,61.6,62.9,55.0,46.5,77,44,20,30.06,29.89,10,2,10,0.00
2013-5-13,99.5,80.3,59.2,59.2,50.0,42.4,59,37,19,30.00,29.83,9,2,9,0.00
2013-5-14,93.1,77.3,61.9,56.6,52.3,47.9,68,45,24,29.89,29.80,11,2,11,0.00
2013-5-15,92.9,73.4,56.7,55.7,48.0,39.0,66,44,21,29.95,29.85,10,2,10,0.01
2013-5-16,73.8,65.1,52.4,50.6,47.4,43.3,73,54,42,29.96,29.87,8,1,8,0.00
2013-5-17,82.4,67.3,51.8,48.7,43.0,32.9,75,45,21,29.96,29.88,10,2,10,0.00
2013-5-18,85.3,67.3,47.2,48.1,40.2,31.2,68,41,16,30.06,29.96,11,2,11,0.00
2013-5-19,89.3,71.8,54.5,52.5,45.2,36.7,71,42,22,30.02,29.88,11,2,11,0.00
2013-5-20,92.7,74.2,52.2,49.4,42.1,36.3,57,34,19,29.96,29.85,11,2,11,0.00
2013-5-21,92.9,73.8,56.0,47.0,39.4,31.9,57,32,15,29.88,29.76,10,2,10,0.00
2013-5-22,75.6,62.4,50.8,41.1,31.7,20.8,64,36,15,29.91,29.79,12,2,12,0.00
2013-5-23,78.8,62.0,45.0,43.7,34.4,29.1,63,39,18,29.91,29.83,9,2,9,0.00
2013-5-24,83.5,65.9,44.6,43.8,37.8,32.9,65,39,21,29.93,29.83,9,2,9,0.00
2013-5-25,84.2,67.3,50.0,44.1,38.8,33.6,60,38,19,29.94,29.87,11,2,11,0.00
2013-5-26,83.0,67.4,50.8,51.5,45.6,39.1,72,48,29,30.01,29.94,13,2,13,0.00
2013-5-27,80.8,65.8,51.7,50.9,47.4,43.3,78,54,30,30.02,29.92,11,2,11,0.00
2013-5-28,84.8,70.1,58.7,56.9,51.7,47.8,75,55,30,29.94,29.80,12,2,12,0.00
2013-5-29,87.3,72.2,58.7,58.4,50.1,39.2,73,49,24,29.88,29.76,14,2,14,0.00
2013-5-30,90.4,71.9,51.7,55.4,46.9,35.5,75,45,18,29.89,29.81,12,2,12,0.02
2013-5-31,92.7,74.0,52.7,52.1,45.2,39.8,65,39,21,29.93,29.83,8,2,8,0.00
2013-6-1,98.8,79.8,57.2,55.3,48.2,40.0,58,36,19,29.85,29.69,10,2,10,0.00
2013-6-2,101.7,82.7,62.8,56.9,51.0,46.5,62,36,19,29.70,29.55,9,2,9,0.00
2013-6-3,95.8,78.9,61.4,58.2,52.8,46.2,62,42,26,29.73,29.60,10,2,10,0.00
2013-6-4,93.8,77.9,63.0,56.3,53.1,49.0,62,44,26,29.83,29.71,9,2,9,0.00
2013-6-5,94.7,77.7,60.8,59.7,53.9,49.6,68,46,27,29.90,29.78,9,2,9,0.00
2013-6-6,97.9,80.4,62.6,61.3,56.9,51.8,70,47,26,29.84,29.72,8,2,8,0.00
2013-6-7,102.1,84.2,64.3,65.3,61.0,54.9,73,48,29,29.78,29.65,9,2,9,0.00
2013-6-8,108.0,89.8,72.5,68.2,62.7,58.1,65,43,24,29.69,29.57,9,2,9,0.00
2013-6-9,100.6,83.5,70.0,63.3,57.7,52.4,61,44,24,29.75,29.65,9,2,9,0.00
2013-6-10,85.5,72.1,58.5,57.4,52.2,44.2,73,52,25,29.87,29.72,10,2,10,0.00
2013-6-11,94.0,75.5,57.6,58.7,54.2,49.3,76,51,29,29.91,29.78,9,2,9,0.00
2013-6-12,96.5,79.0,60.8,61.1,50.5,30.9,73,42,14,29.88,29.81,10,2,10,0.00
2013-6-13,91.8,73.5,52.9,48.2,41.5,35.6,58,34,16,30.00,29.87,11,2,11,0.00
2013-6-14,93.2,73.8,53.1,52.2,42.9,32.6,63,36,16,29.89,29.73,11,2,11,0.00
2013-6-15,97.2,77.2,54.2,49.4,41.6,32.3,55,32,11,29.86,29.76,10,2,10,0.00
2013-6-16,95.6,76.5,56.7,52.7,46.0,37.0,64,38,16,29.97,29.86,11,2,11,0.00
2013-6-17,94.9,76.6,59.8,53.5,46.6,39.3,54,37,17,29.99,29.87,10,2,10,0.01
2013-6-18,87.8,71.8,57.1,52.7,47.5,41.1,71,46,22,29.93,29.82,12,2,12,0.00
2013-6-19,85.3,68.9,53.6,50.1,44.0,36.6,72,45,22,29.96,29.86,12,3,12,0.00
2013-6-20,90.4,71.9,51.1,50.0,44.0,36.6,67,40,18,29.90,29.81,11,2,11,0.00
2013-6-21,92.5,74.3,53.5,52.3,44.6,37.7,64,38,16,29.89,29.78,11,2,11,0.00
2013-6-22,96.5,77.5,54.7,51.1,45.4,39.7,61,35,19,29.85,29.73,10,2,10,0.01
2013-6-23,87.7,73.5,60.8,56.9,48.7,41.1,61,43,24,29.78,29.73,10,2,10,0.01
2013-6-24,82.1,73.1,65.0,61.1,58.0,55.6,75,60,47,29.84,29.74,7,1,7,0.00
2013-6-25,93.8,79.2,66.2,63.7,60.1,56.9,78,55,33,29.92,29.84,8,2,10,0.00
2013-6-26,98.3,82.1,65.7,66.6,62.1,58.2,80,54,30,29.96,29.87,9,2,9,0.00
2013-6-27,101.9,84.5,68.8,66.6,60.6,55.1,67,47,27,29.99,29.91,10,2,10,0.00
2013-6-28,105.3,87.6,68.4,67.0,59.5,52.2,68,42,20,29.94,29.80,10,2,10,0.00
2013-6-29,108.7,90.3,70.2,65.8,60.1,55.3,62,39,20,29.84,29.69,9,2,9,0.00
2013-6-30,109.6,90.8,70.7,68.1,59.7,47.3,65,39,14,29.76,29.64,8,2,8,0.00
2013-7-1,106.4,89.7,72.0,67.8,60.8,54.6,63,40,22,29.77,29.68,12,2,12,0.00
2013-7-2,106.2,90.8,74.9,64.0,59.9,54.9,62,38,20,29.84,29.74,10,2,10,0.00
2013-7-3,106.4,88.9,72.5,67.1,60.0,53.5,54,39,24,29.82,29.65,10,2,10,0.01
2013-7-4,107.5,91.5,75.2,70.2,65.0,60.5,66,44,26,29.70,29.57,10,2,10,0.00
2013-7-5,104.0,88.0,74.0,60.9,53.2,43.1,56,33,17,29.68,29.58,8,2,8,0.00
2013-7-6,101.2,81.4,62.1,60.3,51.9,41.4,66,40,14,29.71,29.60,8,2,8,0.00
2013-7-7,103.3,83.4,62.3,60.2,53.5,42.3,70,41,14,29.75,29.65,10,2,10,0.00
2013-7-8,105.5,84.4,63.7,58.1,48.9,36.7,65,35,8,29.86,29.73,10,2,11,0.00
2013-7-9,107.6,85.8,61.2,57.4,50.6,39.1,61,34,11,29.95,29.81,8,2,8,0.00
2013-7-10,101.9,85.3,66.2,60.9,55.4,48.6,66,39,22,29.87,29.76,11,2,11,0.00
2013-7-11,100.8,84.3,70.6,54.5,48.3,41.3,46,31,15,29.83,29.74,13,2,13,0.00
2013-7-12,100.3,80.9,60.5,58.9,50.2,43.3,65,38,19,29.85,29.74,10,2,10,0.00
2013-7-13,101.5,82.4,60.5,59.1,50.4,41.9,68,37,16,29.86,29.77,9,2,10,0.00
2013-7-14,102.6,83.8,62.3,56.5,49.9,43.2,60,34,18,29.89,29.75,10,2,10,0.00
2013-7-15,99.4,81.6,64.4,56.4,50.2,43.3,57,37,17,29.79,29.67,12,2,12,0.00
2013-7-16,95.8,76.9,58.1,56.0,51.1,45.6,71,44,20,29.89,29.73,9,2,9,0.00
2013-7-17,96.1,76.5,57.6,60.8,52.3,45.6,75,47,19,29.99,29.89,10,2,10,0.00
2013-7-18,99.9,80.5,58.5,57.9,50.2,40.1,70,39,16,29.95,29.80,9,2,9,0.00
2013-7-19,102.6,83.0,63.2,56.9,49.3,40.9,54,34,14,29.83,29.70,8,2,8,0.00
2013-7-20,104.8,86.3,67.0,61.1,52.6,38.2,54,34,13,29.73,29.61,8,2,8,0.00
2013-7-21,105.1,87.9,69.1,62.7,55.3,50.3,56,35,19,29.75,29.64,9,2,9,0.00
2013-7-22,99.0,82.8,71.6,61.4,56.0,52.3,56,41,25,29.84,29.72,9,2,9,0.00
2013-7-23,98.5,83.9,73.8,65.1,58.5,49.1,65,44,24,29.91,29.80,10,2,10,0.00
2013-7-24,101.9,84.1,65.9,59.5,53.0,43.9,49,36,22,29.87,29.75,9,2,9,0.00
2013-7-25,102.1,87.0,71.6,62.3,56.1,48.8,51,36,23,29.87,29.80,7,2,9,0.02
2013-7-26,104.2,87.1,69.8,65.3,57.5,50.6,57,39,19,29.96,29.84,10,2,10,0.01
2013-7-27,101.7,84.8,70.9,57.8,54.3,48.5,60,38,18,29.89,29.72,10,1,10,0.00
2013-7-28,101.5,83.7,66.6,60.0,55.9,50.6,70,42,20,29.76,29.66,9,2,9,0.00
2013-7-29,98.5,80.8,64.1,59.7,54.5,50.3,67,43,23,29.87,29.71,10,2,10,0.00
2013-7-30,96.3,78.7,61.4,61.5,54.5,48.3,76,47,21,29.99,29.87,9,2,9,0.00
2013-7-31,97.9,79.9,62.3,58.5,52.6,44.1,70,42,19,29.98,29.83,9,2,9,0.00
2013-8-1,95.8,76.9,58.7,51.7,44.2,34.9,59,35,13,29.95,29.81,10,2,10,0.00
2013-8-2,94.9,75.6,52.9,51.7,45.1,38.9,67,37,17,29.88,29.77,9,2,9,0.00
2013-8-3,97.0,78.2,56.0,53.7,46.1,40.1,66,36,16,29.86,29.77,9,2,9,0.00
2013-8-4,98.6,78.8,57.1,57.7,49.1,43.8,73,39,17,29.87,29.78,10,2,10,0.00
2013-8-5,98.3,78.3,61.6,58.5,51.8,47.8,70,43,23,29.90,29.78,9,2,9,0.00
2013-8-6,95.8,77.5,58.9,57.7,51.4,47.0,73,43,22,29.89,29.81,10,2,10,0.00
2013-8-7,90.2,73.6,59.2,59.1,53.1,48.0,77,52,27,29.99,29.87,9,2,9,0.00
2013-8-8,90.2,73.6,57.2,59.5,52.3,47.1,78,51,26,29.91,29.78,8,2,9,0.00
2013-8-9,93.1,75.0,56.5,57.6,50.7,41.8,77,46,19,29.85,29.77,8,2,8,0.00
2013-8-10,93.2,75.8,58.7,56.8,51.7,41.6,77,47,19,29.92,29.83,9,2,9,0.00
2013-8-11,94.9,77.4,60.1,58.1,52.3,46.6,76,46,21,29.90,29.78,10,1,10,0.00
2013-8-12,98.1,78.8,59.2,56.1,50.7,46.2,73,41,21,29.88,29.78,10,1,10,0.00
2013-8-13,99.7,79.7,57.4,57.7,50.4,46.4,70,40,19,29.88,29.77,8,2,10,0.00
2013-8-14,101.9,80.9,59.8,58.1,48.2,40.6,65,36,15,29.86,29.74,9,2,9,0.00
2013-8-15,102.8,81.0,58.5,56.8,48.4,38.6,64,36,14,29.86,29.76,8,2,8,0.00
2013-8-16,102.1,81.3,59.8,60.1,51.6,41.6,65,40,16,29.88,29.77,9,2,9,0.00
2013-8-17,101.5,82.7,65.2,61.5,53.4,41.7,63,40,16,29.87,29.70,9,2,9,0.00
2013-8-18,100.8,82.5,66.6,61.2,56.3,51.8,63,43,23,29.80,29.65,9,2,9,0.00
2013-8-19,107.5,87.7,71.1,66.9,60.0,55.0,69,43,19,29.78,29.65,16,2,16,0.10
2013-8-20,102.1,86.1,71.6,62.8,58.5,52.7,69,43,23,29.76,29.64,10,2,10,0.02
2013-8-21,99.4,81.6,65.3,60.5,52.9,40.8,70,41,16,29.78,29.63,9,1,9,0.00
2013-8-22,97.6,77.2,61.7,57.0,51.4,37.3,70,44,16,29.74,29.54,8,1,8,0.00
2013-8-23,95.0,77.2,59.4,58.8,52.0,47.0,75,45,24,29.64,29.38,9,2,9,0.00
2013-8-24,69.5,63.4,57.8,50.0,48.5,46.1,67,59,47,29.45,29.36,2,0,2,0.00
2013-8-25,64.4,62.3,60.7,55.1,53.6,51.0,77,73,69,29.37,29.32,2,0,2,0.00
2013-8-28,87.1,80.6,75.4,54.9,52.5,50.3,45,38,33,29.57,29.23,5,1,5,0.00
2013-8-29,97.4,80.4,63.4,61.8,55.7,49.4,77,46,26,29.42,29.06,6,2,8,0.00
2013-8-30,98.3,80.6,62.8,61.3,55.2,51.4,74,44,24,29.23,28.90,9,2,9,0.00
2013-8-31,98.8,82.2,65.9,60.1,55.2,50.2,65,42,24,28.99,28.67,8,2,10,0.03
2013-9-1,97.2,79.5,66.4,61.8,56.8,51.2,64,47,29,28.77,28.53,5,1,9,0.00
2013-9-2,95.0,80.0,68.8,63.2,57.0,52.3,60,46,35,28.87,28.52,7,2,7,0.00
2013-9-3,93.4,78.7,68.0,58.6,56.7,51.5,65,48,31,28.92,28.65,5,2,5,0.00
2013-9-4,94.5,78.0,63.7,60.0,54.7,50.3,69,46,31,28.92,28.81,7,2,7,0.00
2013-9-5,94.1,77.0,62.5,58.1,52.0,47.2,67,43,30,28.90,28.79,4,1,4,0.00
2013-9-6,94.3,76.4,60.1,58.9,52.6,48.3,72,45,29,28.88,28.74,5,1,5,0.00
2013-9-7,100.1,81.5,63.0,59.6,52.5,48.6,60,40,20,28.80,28.67,5,1,5,0.00
2013-9-8,100.1,80.8,61.2,55.3,50.9,48.6,69,39,20,28.73,28.60,6,1,6,0.00
2013-9-9,99.0,80.8,65.3,57.2,50.9,48.2,57,38,21,28.66,28.54,6,2,6,0.00
2013-9-10,79.2,73.2,64.4,52.2,50.0,45.1,53,44,39,29.82,28.57,3,1,4,0.00
2013-9-11,89.8,74.1,59.9,60.3,53.8,49.4,78,51,30,29.95,29.81,7,1,8,0.00
2013-9-12,90.4,74.5,59.8,61.7,55.6,51.4,81,55,32,29.94,29.82,7,1,8,0.00
2013-9-13,94.0,78.0,60.7,61.7,55.6,50.6,74,48,29,29.85,29.68,6,1,8,0.00
2013-9-14,96.3,80.2,64.1,62.2,56.8,53.0,73,47,29,29.75,29.64,7,2,8,0.00
2013-9-15,94.9,77.3,62.3,60.9,53.6,47.0,72,47,24,29.79,29.70,8,2,9,0.00
2013-9-16,93.2,75.7,58.7,59.9,53.5,48.3,77,48,29,29.85,29.71,6,1,8,0.00
2013-9-17,87.1,72.8,58.5,53.7,49.4,42.5,72,46,23,29.82,29.75,8,2,10,0.00
2013-9-18,84.8,68.6,51.7,55.0,48.8,44.0,80,52,30,29.87,29.76,9,2,10,0.00
2013-9-19,92.3,73.0,54.5,54.0,47.0,40.5,66,42,24,29.84,29.70,7,1,9,0.00
2013-9-20,92.5,73.7,55.8,53.7,47.1,40.8,66,42,18,29.81,29.71,7,2,10,0.00
2013-9-21,81.7,66.3,56.2,58.3,53.6,49.0,84,66,38,29.87,29.71,11,2,12,0.03
2013-9-22,76.7,63.2,50.2,54.1,49.3,45.6,87,63,39,29.95,29.86,6,1,9,0.01
2013-9-23,83.5,66.8,50.9,53.8,49.7,44.0,82,57,34,30.00,29.89,10,2,10,0.00
2013-9-24,87.5,70.7,54.2,56.4,50.2,45.4,75,51,28,29.96,29.80,9,2,9,0.00
2013-9-25,76.1,64.0,52.7,50.1,45.1,38.1,75,52,31,29.89,29.73,9,2,10,0.00
2013-9-26,75.2,60.9,47.2,46.2,40.3,33.1,80,50,24,29.92,29.74,7,1,10,0.00
2013-9-27,79.6,62.1,45.5,43.3,36.9,31.2,70,42,24,30.05,29.92,7,1,9,0.00
2013-9-28,85.7,65.5,46.6,44.1,37.1,31.7,64,38,19,30.07,29.96,6,1,7,0.00
2013-9-29,88.4,68.8,49.0,44.9,38.6,30.6,64,36,17,30.08,29.97,6,1,7,0.00
2013-9-30,85.0,68.4,50.9,55.4,49.5,43.1,77,53,31,30.05,29.90,8,1,9,0.00
2013-10-1,83.5,68.0,51.8,57.1,50.6,44.1,78,56,37,29.96,29.86,5,1,8,0.00
2013-10-2,82.8,66.0,50.0,53.0,44.5,36.3,77,49,24,29.96,29.85,8,1,9,0.09
2013-10-3,75.6,61.0,48.6,43.3,38.1,32.5,73,46,23,29.96,29.87,6,1,9,0.00
2013-10-4,80.5,61.3,43.0,45.2,35.7,30.3,65,41,22,30.08,29.91,7,1,8,0.00
2013-10-5,85.3,64.4,45.2,44.0,35.5,30.0,64,37,17,30.19,30.08,7,1,9,0.00
2013-10-6,88.4,66.3,46.8,41.3,33.6,28.4,61,33,14,30.12,29.96,8,1,8,0.00
2013-10-7,87.1,66.8,49.9,41.1,33.7,27.9,62,32,16,29.96,29.83,7,1,7,0.00
2013-10-8,82.1,64.4,47.2,42.6,36.2,27.4,53,37,23,29.85,29.66,7,1,8,0.00
2013-10-9,63.4,57.3,51.8,46.2,42.9,37.3,67,59,46,29.76,29.60,16,4,16,0.00
2013-10-10,72.9,60.0,50.6,45.6,42.9,36.4,75,55,35,29.97,29.76,10,2,12,0.00
2013-10-11,79.0,60.7,45.0,47.2,41.3,34.5,76,51,30,30.04,29.91,10,1,10,0.00
2013-10-12,79.6,61.8,44.5,47.6,41.2,34.8,75,49,29,29.97,29.84,8,1,8,0.00
2013-10-13,75.6,60.4,49.0,48.8,42.8,37.6,69,54,35,30.03,29.85,7,1,7,0.00
2013-10-14,79.2,61.1,45.9,48.4,42.0,35.4,78,52,32,30.09,29.96,10,1,10,0.00
2013-10-15,79.7,61.4,44.6,48.3,40.6,34.9,76,49,29,30.01,29.93,9,1,9,0.00
2013-10-16,84.1,63.3,44.8,43.3,37.3,31.1,72,42,19,30.09,29.98,10,1,10,0.00
2013-10-17,82.4,62.4,45.2,44.4,35.9,29.3,66,40,22,30.06,29.92,8,1,8,0.00
2013-10-18,84.2,63.5,45.2,43.4,37.1,29.9,65,40,21,30.04,29.95,7,1,7,0.00
2013-10-19,85.1,63.9,45.9,45.0,37.6,30.8,62,40,22,30.06,29.95,8,1,8,0.00
2013-10-20,82.8,61.9,44.3,46.4,38.3,30.7,64,44,25,29.99,29.86,9,1,9,0.00
2013-10-21,94.5,63.0,45.7,53.7,39.3,32.1,70,45,21,29.96,29.86,6,1,6,0.00
2013-10-22,94.7,62.0,42.8,52.0,36.9,29.8,63,43,18,29.98,29.86,5,1,5,0.00
2013-10-23,81.0,57.0,43.4,57.4,42.6,28.8,85,60,39,29.91,29.83,8,1,8,0.00
2013-10-24,88.6,61.0,42.8,59.7,43.7,36.1,79,56,31,30.02,29.88,7,1,7,0.00
2013-10-25,79.2,60.3,44.5,49.0,42.7,36.6,79,55,30,30.13,30.02,8,1,8,0.00
2013-10-26,81.5,62.3,45.7,49.5,42.8,35.6,73,51,29,30.11,29.96,6,1,6,0.00
2013-10-27,79.9,61.9,46.4,49.3,43.2,36.6,72,53,31,29.99,29.66,8,2,8,0.00
2013-10-28,60.8,54.0,50.0,50.2,44.3,40.2,86,70,55,29.86,29.68,11,3,12,0.09
2013-10-29,67.0,53.9,40.7,46.8,41.9,36.2,87,66,43,29.99,29.86,8,1,8,0.00
2013-10-30,69.5,53.5,37.8,49.2,40.4,33.5,87,64,40,30.10,29.99,7,1,7,0.00
2013-10-31,72.9,54.8,40.0,48.2,40.8,34.3,84,62,38,30.15,30.04,6,1,6,0.00
2013-11-1,75.4,56.7,39.6,49.8,40.2,33.9,83,57,32,30.14,29.98,6,1,6,0.00
2013-11-2,76.0,57.7,41.9,48.4,40.7,33.0,77,55,32,30.00,29.84,7,1,7,0.00
2013-11-3,65.3,54.1,46.6,43.3,36.4,30.4,84,54,32,29.96,29.85,7,1,7,0.00
2013-11-4,63.5,50.6,38.7,37.5,32.7,26.8,74,52,34,30.02,29.83,6,1,6,0.00
2013-11-5,67.1,51.3,36.9,40.8,34.3,27.4,78,54,34,30.20,30.01,8,1,8,0.00
2013-11-6,72.9,54.0,37.8,42.0,34.1,27.5,74,49,28,30.24,30.14,6,1,6,0.02
2013-11-7,74.9,56.8,44.1,41.5,34.1,28.0,62,44,26,30.15,30.02,5,1,5,0.00
2013-11-8,72.2,54.0,39.6,42.6,33.9,26.6,64,48,30,30.04,29.92,7,1,7,0.00
2013-11-9,74.7,55.8,40.9,43.8,35.3,28.8,68,48,28,30.01,29.94,7,1,7,0.01
2013-11-10,76.1,56.5,38.5,43.3,35.0,27.3,68,47,24,30.07,29.98,6,1,6,0.00
2013-11-11,74.5,60.6,39.6,44.7,38.5,27.9,72,46,29,30.14,30.02,6,1,6,0.00
2013-11-12,65.9,56.4,49.1,46.1,40.5,34.6,73,56,43,30.26,30.11,7,1,7,0.00
2013-11-13,70.2,54.9,41.0,48.3,40.6,32.6,80,60,41,30.20,30.06,7,1,7,0.00
2013-11-14,73.8,56.8,42.7,48.4,41.0,34.3,76,58,37,30.08,29.78,6,1,6,0.00
2013-11-15,65.5,51.9,41.6,45.2,38.6,31.8,85,62,43,29.79,29.68,7,1,7,0.00
2013-11-16,66.2,51.6,39.8,46.2,37.9,31.5,81,61,43,29.89,29.73,8,1,8,0.00
2013-11-17,66.2,50.6,37.8,44.2,36.6,30.0,80,60,39,30.05,29.88,9,1,9,0.00
2013-11-18,67.3,53.2,38.5,45.5,38.6,30.2,79,59,40,30.11,30.00,7,1,7,0.00
2013-11-19,65.2,53.0,42.5,46.8,41.6,34.1,82,66,50,30.07,29.94,6,1,6,0.00
2013-11-20,66.6,57.6,51.1,52.7,49.6,44.1,90,76,54,29.96,29.79,6,1,6,0.26
2013-11-21,55.8,52.2,46.3,52.6,48.9,42.9,91,88,86,29.93,29.82,7,1,7,0.07
2013-11-22,55.4,50.0,45.0,49.3,45.9,42.1,90,86,77,29.99,29.90,4,1,4,0.00
2013-11-23,63.4,50.5,39.2,49.1,42.2,36.5,93,75,50,30.08,29.95,9,0,9,0.00
2013-11-24,63.5,50.1,38.5,48.1,41.2,34.7,89,73,50,30.21,30.07,4,0,4,0.00
2013-11-25,63.7,49.0,37.3,47.8,40.2,33.6,91,73,50,30.30,30.21,5,0,5,0.00
2013-11-26,63.9,49.6,38.2,49.1,41.2,33.9,90,74,53,30.24,30.04,4,0,4,0.00
2013-11-27,70.4,53.1,39.6,48.0,40.7,36.1,90,66,35,30.04,29.81,6,0,6,0.00
2013-11-28,69.1,53.9,43.2,46.5,40.1,35.0,80,62,37,30.04,29.83,6,0,6,0.00
2013-11-29,71.1,52.2,38.3,44.7,38.5,32.9,85,63,34,30.19,30.03,8,1,8,0.00
2013-11-30,65.5,50.6,38.7,46.2,39.4,33.3,84,67,45,30.23,30.14,3,0,3,0.00
2013-12-1,66.1,50.3,36.4,47.6,39.8,31.5,87,69,48,30.31,30.18,7,0,7,0.00
2013-12-2,65.9,50.4,36.4,48.4,40.9,31.3,89,71,50,30.21,29.89,8,0,8,0.00
2013-12-3,51.8,44.6,31.3,48.2,39.1,25.3,91,81,72,29.89,29.75,7,1,7,0.02
2013-12-4,56.2,36.0,23.9,34.3,26.7,20.1,90,71,41,30.03,29.84,11,2,11,0.00
2013-12-5,52.9,34.8,21.1,32.4,22.0,16.6,89,63,26,30.14,30.01,7,1,7,0.00
2013-12-6,51.1,37.4,23.0,28.8,23.1,17.3,82,59,34,30.17,30.02,11,2,11,0.00
2013-12-7,53.3,40.7,30.1,40.5,30.8,24.3,88,69,42,30.15,29.91,19,3,19,0.29
2013-12-8,52.0,34.5,24.3,31.0,25.5,20.2,88,71,39,30.27,30.15,6,0,6,0.01
2013-12-9,55.6,34.4,22.1,31.4,24.8,18.1,88,70,36,30.38,30.25,6,1,6,0.00
2013-12-10,62.1,36.6,23.2,33.9,25.7,18.6,85,67,33,30.38,30.17,5,1,5,0.00
2013-12-11,65.9,40.4,27.5,38.5,29.2,23.1,87,67,31,30.22,30.15,5,1,5,0.00
2013-12-12,68.6,41.0,25.7,38.6,29.1,21.3,87,66,32,30.22,30.12,5,1,5,0.00
2013-12-13,65.3,40.4,27.2,38.2,29.4,21.8,84,67,34,30.30,30.15,6,1,6,0.00
2013-12-14,68.0,42.6,27.9,38.0,30.3,23.2,87,65,32,30.37,30.27,5,1,5,0.00
2013-12-15,69.7,42.9,27.5,42.1,30.8,22.9,86,65,34,30.33,30.20,5,1,5,0.00
2013-12-16,68.8,45.4,31.3,41.5,33.5,26.8,86,66,34,30.22,30.11,4,1,4,0.00
2013-12-17,66.2,48.9,34.2,43.6,37.7,28.9,85,67,43,30.16,29.99,5,1,5,0.00
2013-12-18,67.7,54.0,45.2,45.7,42.1,39.2,83,66,41,30.00,29.68,11,1,11,0.00
2013-12-19,56.5,48.4,37.6,42.5,39.8,32.6,84,72,57,29.84,29.65,6,1,6,0.00
2013-12-20,59.4,43.2,31.9,43.4,35.0,28.2,90,74,50,29.97,29.83,8,1,8,0.00
2013-12-21,63.0,43.1,31.5,36.4,29.9,26.1,83,62,34,30.07,29.93,7,1,7,0.00
2013-12-22,69.3,44.2,29.9,41.7,31.4,24.5,84,64,33,30.27,30.06,6,1,6,0.00
2013-12-23,72.7,46.4,31.0,43.0,32.7,25.6,85,62,33,30.36,30.26,5,1,5,0.00
2013-12-24,69.7,44.3,32.2,43.7,33.3,26.6,85,67,37,30.29,30.19,7,1,8,0.00
2013-12-25,75.4,46.3,32.4,42.7,33.7,27.3,86,65,29,30.25,30.17,4,1,4,0.00
2013-12-26,74.0,46.3,29.7,42.8,31.9,23.5,82,61,29,30.25,30.15,6,1,6,0.00
2013-12-27,65.9,46.3,30.6,41.3,33.8,24.3,82,64,38,30.22,30.07,6,1,6,0.00
2013-12-28,70.4,44.8,32.0,39.1,32.2,26.9,82,64,30,30.08,29.99,6,1,6,0.00
2013-12-29,72.9,45.0,31.0,42.3,32.2,24.8,86,64,31,30.16,30.05,6,1,6,0.00
2013-12-30,74.7,46.6,29.5,39.2,30.0,22.4,79,56,24,30.22,30.14,5,1,5,0.00
2013-12-31,71.1,45.9,31.1,35.9,28.4,22.5,74,54,25,30.22,30.10,5,1,5,0.00
2014-1-1,70.6,45.7,30.8,39.1,29.4,22.7,79,56,30,30.19,30.09,5,1,5,0.00
2014-1-2,72.7,47.2,32.0,40.5,31.3,24.6,77,57,30,30.14,30.02,5,1,5,0.00